Location: Amsterdam
(30.7274°N, 84.4357°W)
Time: 19:25:39
(UTC+00:00)

Courier 1B Rocket - Pass Details

Date: 09 February 2026
Orbit: 920 x 1201 km, 28.2° (Epoch: 10 March)

Event Time Altitude Azimuth Distance (km) Brightness Sun altitude
Rises 01:44:39 0° 206° (SSW) 3,625 8.3 -31.5°
Reaches altitude 10° 01:48:17 10° 186° (S) 2,727 7.4 -32.3°
Enters shadow 01:48:52 12° 182° (S) 2,621 7.2 -32.4°
Maximum altitude 01:52:16 17° 149° (SSE) 2,333 - -33.1°
Drops below altitude 10° 01:56:24 10° 112° (ESE) 2,853 - -34.0°
Sets 02:00:19 0° 93° (E) 3,872 - -34.9°
